Zurück zum Katalog

CZ-4 DEB

AktivSSO
NORAD 35375·DEBRIS·🇨🇳 China

Gestartet Oct 23, 2006 von Taiyuan Satellite Launch Center

Loading…

Nächste Überflüge (nächste 24 Stunden)

TLE

AktuellSource: Space-Track

Epoche: Sep 14, 2026, 01:54 UTC

1 35375U 06046H   26257.07984013  .00002225  00000-0  12355-3 0  9993
2 35375  97.5352 305.5753 0045684   5.1283  24.6368 15.13915999 84845

Verfolge CZ-4 DEB in Echtzeit mit AllMySat

Download on the App Store